{"data":{"norad_id":63853,"epoch":"2026-09-20T09:47:16.575072Z","epoch_age_seconds":157809,"freshness":"FRESH","line1":"1 63853U 25093T   26263.40783073  .00010573  00000+0  39319-3 0  9998","line2":"2 63853  43.0026  58.0584 0001155 259.5554 100.5167 15.27579902 77752","mean_motion":15.27579902,"eccentricity":0.0001155,"inclination_deg":43.0026,"raan_deg":58.0584,"arg_perigee_deg":259.5554,"mean_anomaly_deg":100.5167,"bstar":0.00039319,"rev_number":7775,"period_min":94.266754761218,"perigee_km":482.25692245894,"apogee_km":483.84185651491,"semimajor_km":6861.1863894869,"source":"CELESTRAK","updated_at":"2026-09-21T09:00:35.134405Z"}}